This is the latest recevied weather packets stored in our database for station/object HA6IFZ-10. If no packets are shown the sender has not sent any weather packets the latest 10 day(s).
| Time | Temp. | Humidity | Pressure | Rain* | Wind** | Luminosity | Snow |
|---|---|---|---|---|---|---|---|
| 1787770983 | 21.67° C | 46% | 1026.4 hPa | - | - | - | - |
| 1787770083 | 21.67° C | 43% | 1026.3 hPa | - | - | - | - |
| 1787769183 | 22.22° C | 43% | 1026.2 hPa | - | - | - | - |
| 1787768283 | 22.78° C | 42% | 1026.1 hPa | - | - | - | - |
| 1787767382 | 22.78° C | 41% | 1026.1 hPa | - | - | - | - |
| 1787766482 | 23.33° C | 39% | 1025.9 hPa | - | - | - | - |
| 1787765582 | 23.89° C | 38% | 1025.9 hPa | - | - | - | - |
| 1787764681 | 24.44° C | 37% | 1025.7 hPa | - | - | - | - |
| 1787762885 | 25° C | 35% | 1025.5 hPa | - | - | - | - |
| 1787761985 | 25.56° C | 35% | 1025.4 hPa | - | - | - | - |
| 1787761085 | 25.56° C | 34% | 1025.3 hPa | - | - | - | - |
| 1787760185 | 25.56° C | 33% | 1025.2 hPa | - | - | - | - |
| 1787759285 | 26.67° C | 33% | 1025.3 hPa | - | - | - | - |
| 1787758385 | 26.11° C | 33% | 1025.3 hPa | - | - | - | - |
| 1787757485 | 26.67° C | 31% | 1025.4 hPa | - | - | - | - |
| 1787756585 | 27.22° C | 32% | 1025.2 hPa | - | - | - | - |
| 1787755685 | 26.67° C | 33% | 1025.2 hPa | - | - | - | - |
| 1787754785 | 26.11° C | 33% | 1025.2 hPa | - | - | - | - |
| 1787753884 | 26.67° C | 32% | 1025.4 hPa | - | - | - | - |
| 1787752984 | 25.56° C | 34% | 1025.4 hPa | - | - | - | - |
| 1787752084 | 26.11° C | 34% | 1025.4 hPa | - | - | - | - |
| 1787751183 | 26.11° C | 34% | 1025.2 hPa | - | - | - | - |
| 1787750283 | 26.67° C | 32% | 1025.1 hPa | - | - | - | - |
| 1787749383 | 26.67° C | 32% | 1025.2 hPa | - | - | - | - |
| 1787748483 | 26.67° C | 32% | 1025.1 hPa | - | - | - | - |
* Rain since midnight (hover to see other rain measurements)
** Current wind speed in m/s (hover to see current wind gust speed)